�������l�o���
Date,Time,MP-1(��Sv/h),MP-2(��Sv/h),MP-3(��Sv/h),MP-4(��Sv/h),MP-5(��Sv/h),MP-6(��Sv/h),MP-7(��Sv/h),MP-8(��Sv/h),����,����(m/s),���J
2022/11/26,00:00,0.563,0.815,0.513,1.025,0.707,0.330,0.582,0.550,��,9.6,��
2022/11/26,00:10,0.562,0.815,0.515,1.024,0.707,0.330,0.583,0.551,��쐼,9.1,��
2022/11/26,00:20,0.564,0.812,0.515,1.024,0.705,0.330,0.582,0.550,��,9.8,��
2022/11/26,00:30,0.563,0.811,0.514,1.024,0.706,0.330,0.582,0.550,��,10.0,��
2022/11/26,00:40,0.562,0.815,0.515,1.024,0.707,0.331,0.582,0.551,��,9.4,��
2022/11/26,00:50,0.564,0.812,0.515,1.022,0.706,0.330,0.583,0.551,��,9.7,��
2022/11/26,01:00,0.561,0.814,0.514,1.023,0.706,0.330,0.582,0.550,��쐼,10.2,��
2022/11/26,01:10,0.563,0.814,0.513,1.023,0.707,0.331,0.582,0.551,��,10.4,��
2022/11/26,01:20,0.563,0.815,0.513,1.022,0.704,0.331,0.582,0.551,��,9.5,��
2022/11/26,01:30,0.563,0.814,0.513,1.025,0.708,0.331,0.582,0.550,��,9.1,��
2022/11/26,01:40,0.565,0.814,0.515,1.024,0.706,0.331,0.582,0.550,��,9.4,��
2022/11/26,01:50,0.564,0.815,0.514,1.023,0.706,0.331,0.583,0.550,��,8.2,��
2022/11/26,02:00,0.565,0.817,0.514,1.025,0.707,0.332,0.583,0.550,��,7.9,��
2022/11/26,02:10,0.563,0.816,0.514,1.024,0.707,0.329,0.582,0.549,��쓌,7.1,��
2022/11/26,02:20,0.564,0.815,0.516,1.023,0.707,0.333,0.581,0.552,��쓌,8.1,��
2022/11/26,02:30,0.562,0.814,0.516,1.024,0.709,0.330,0.582,0.551,��,8.6,��
2022/11/26,02:40,0.564,0.814,0.516,1.024,0.706,0.331,0.584,0.551,��,8.8,��
2022/11/26,02:50,0.562,0.816,0.513,1.022,0.706,0.331,0.581,0.552,��,7.5,��
2022/11/26,03:00,0.563,0.815,0.514,1.023,0.706,0.331,0.582,0.551,��쐼,6.8,��
2022/11/26,03:10,0.563,0.816,0.513,1.022,0.707,0.332,0.583,0.551,��쐼,7.7,��
2022/11/26,03:20,0.564,0.813,0.514,1.024,0.707,0.330,0.582,0.551,��쐼,10.7,��
2022/11/26,03:30,0.564,0.814,0.516,1.024,0.706,0.331,0.583,0.551,��쐼,9.3,��
2022/11/26,03:40,0.563,0.814,0.514,1.025,0.707,0.331,0.583,0.552,��쐼,7.8,��
2022/11/26,03:50,0.563,0.813,0.514,1.025,0.707,0.330,0.582,0.551,��쐼,6.8,��
2022/11/26,04:00,0.563,0.815,0.515,1.023,0.708,0.330,0.584,0.552,��,7.9,��
2022/11/26,04:10,0.564,0.815,0.514,1.023,0.706,0.332,0.583,0.552,��쐼,9.0,��
2022/11/26,04:20,0.565,0.815,0.514,1.023,0.706,0.332,0.583,0.551,��쐼,8.3,��
2022/11/26,04:30,0.563,0.813,0.515,1.024,0.707,0.330,0.582,0.551,��쐼,7.3,��
2022/11/26,04:40,0.562,0.813,0.515,1.024,0.706,0.330,0.582,0.551,��쐼,6.0,��
2022/11/26,04:50,0.564,0.816,0.515,1.022,0.706,0.332,0.583,0.551,��쐼,6.4,��
2022/11/26,05:00,0.562,0.815,0.514,1.023,0.707,0.332,0.581,0.550,��쐼,6.9,��
2022/11/26,05:10,0.564,0.814,0.514,1.022,0.707,0.331,0.584,0.551,��쐼,6.9,��
2022/11/26,05:20,0.563,0.814,0.516,1.024,0.705,0.331,0.584,0.550,��,7.8,��
2022/11/26,05:30,0.562,0.815,0.515,1.024,0.708,0.332,0.582,0.553,��,7.9,��
2022/11/26,05:40,0.564,0.816,0.513,1.023,0.706,0.331,0.582,0.551,��,8.3,��
2022/11/26,05:50,0.563,0.813,0.513,1.025,0.707,0.332,0.582,0.551,��,8.0,��
2022/11/26,06:00,0.564,0.815,0.515,1.024,0.705,0.331,0.584,0.551,��,7.7,��
2022/11/26,06:10,0.564,0.812,0.514,1.023,0.705,0.331,0.582,0.552,��쐼,6.7,��
2022/11/26,06:20,0.562,0.813,0.514,1.025,0.707,0.332,0.582,0.552,��쐼,6.9,��
2022/11/26,06:30,0.564,0.815,0.516,1.024,0.706,0.332,0.582,0.551,��쐼,7.9,��
2022/11/26,06:40,0.562,0.813,0.515,1.024,0.706,0.332,0.582,0.552,��쐼,8.5,��
2022/11/26,06:50,0.563,0.815,0.516,1.024,0.707,0.331,0.582,0.552,��쐼,9.0,��
2022/11/26,07:00,0.564,0.816,0.515,1.022,0.709,0.332,0.583,0.551,��쐼,8.9,��
2022/11/26,07:10,0.564,0.814,0.513,1.023,0.708,0.331,0.584,0.551,��쐼,8.6,��
2022/11/26,07:20,0.565,0.814,0.516,1.025,0.708,0.331,0.583,0.552,��쐼,9.5,��
2022/11/26,07:30,0.564,0.814,0.515,1.023,0.706,0.332,0.583,0.549,��쐼,11.4,��
2022/11/26,07:40,0.566,0.814,0.514,1.025,0.708,0.332,0.582,0.551,��쐼,11.0,��
2022/11/26,07:50,0.565,0.815,0.515,1.024,0.708,0.332,0.582,0.553,��쐼,10.0,��
2022/11/26,08:00,0.565,0.815,0.516,1.024,0.709,0.332,0.582,0.551,��쐼,9.3,��
2022/11/26,08:10,0.566,0.815,0.514,1.026,0.709,0.332,0.582,0.553,��쐼,9.4,��
2022/11/26,08:20,0.567,0.814,0.516,1.025,0.707,0.332,0.582,0.552,��,11.4,��
2022/11/26,08:30,0.566,0.818,0.516,1.023,0.709,0.331,0.584,0.552,��,9.4,��
2022/11/26,08:40,0.565,0.816,0.516,1.025,0.707,0.332,0.584,0.554,��,8.9,��
2022/11/26,08:50,0.565,0.816,0.516,1.025,0.708,0.330,0.582,0.552,��,8.0,��
2022/11/26,09:00,0.563,0.815,0.515,1.025,0.708,0.330,0.582,0.554,��,6.9,��
2022/11/26,09:10,0.563,0.814,0.516,1.026,0.707,0.331,0.581,0.553,��,7.6,��
2022/11/26,09:20,0.566,0.812,0.516,1.026,0.709,0.330,0.582,0.552,��,8.3,��
2022/11/26,09:30,0.563,0.812,0.517,1.026,0.706,0.331,0.582,0.553,��,5.3,��
2022/11/26,09:40,0.563,0.814,0.515,1.025,0.707,0.331,0.583,0.551,��,7.2,��
2022/11/26,09:50,0.564,0.813,0.516,1.025,0.707,0.331,0.583,0.552,��,5.5,��
2022/11/26,10:00,0.565,0.816,0.516,1.026,0.706,0.332,0.584,0.550,��,6.2,��
2022/11/26,10:10,0.564,0.814,0.516,1.026,0.707,0.331,0.582,0.553,��,5.3,��
2022/11/26,10:20,0.565,0.815,0.516,1.026,0.710,0.331,0.584,0.553,��,5.6,��
2022/11/26,10:30,0.566,0.814,0.515,1.025,0.709,0.332,0.584,0.553,��,5.5,��
2022/11/26,10:40,0.565,0.812,0.517,1.025,0.709,0.330,0.584,0.552,��,6.9,��
2022/11/26,10:50,0.564,0.811,0.517,1.027,0.708,0.331,0.583,0.552,��,6.0,��
2022/11/26,11:00,0.564,0.813,0.515,1.027,0.708,0.331,0.583,0.552,��쓌,8.7,��
2022/11/26,11:10,0.564,0.814,0.515,1.026,0.707,0.332,0.582,0.550,��쓌,9.8,��
2022/11/26,11:20,0.564,0.814,0.515,1.026,0.707,0.332,0.582,0.548,��쓌,8.8,�L
2022/11/26,11:30,0.564,0.812,0.513,1.028,0.706,0.330,0.584,0.550,��,8.3,��
2022/11/26,11:40,0.563,0.812,0.514,1.026,0.708,0.333,0.582,0.551,��,8.3,�L
2022/11/26,11:50,0.567,0.814,0.514,1.027,0.708,0.331,0.581,0.551,��,9.9,�L
2022/11/26,12:00,0.565,0.812,0.514,1.028,0.706,0.332,0.582,0.550,��쐼,9.7,�L
2022/11/26,12:10,0.563,0.809,0.516,1.027,0.703,0.332,0.581,0.551,��,12.4,�L
2022/11/26,12:20,0.563,0.810,0.513,1.026,0.702,0.332,0.582,0.550,��,10.7,�L
2022/11/26,12:30,0.561,0.810,0.514,1.027,0.702,0.333,0.583,0.549,��,7.6,�L
2022/11/26,12:40,0.563,0.808,0.513,1.025,0.704,0.334,0.582,0.550,��,7.8,��
2022/11/26,12:50,0.564,0.811,0.514,1.023,0.704,0.331,0.582,0.550,��,6.6,��
2022/11/26,13:00,0.563,0.811,0.515,1.023,0.702,0.333,0.581,0.551,��,5.7,��
2022/11/26,13:10,0.566,0.810,0.517,1.025,0.705,0.333,0.584,0.551,��,5.6,�L
2022/11/26,13:20,0.564,0.811,0.515,1.023,0.702,0.333,0.583,0.552,��,6.7,��
2022/11/26,13:30,0.564,0.812,0.516,1.024,0.703,0.334,0.582,0.550,��쐼,7.7,��
2022/11/26,13:40,0.566,0.809,0.514,1.025,0.704,0.332,0.584,0.550,��쐼,9.0,��
2022/11/26,13:50,0.564,0.811,0.514,1.025,0.704,0.332,0.582,0.549,��쐼,7.9,��
2022/11/26,14:00,0.564,0.809,0.513,1.025,0.703,0.331,0.582,0.551,��쐼,6.2,��
2022/11/26,14:10,0.564,0.811,0.512,1.024,0.705,0.330,0.582,0.550,��쐼,7.8,��
2022/11/26,14:20,0.565,0.811,0.513,1.025,0.704,0.331,0.583,0.552,��쐼,5.2,��
2022/11/26,14:30,0.565,0.808,0.511,1.023,0.703,0.330,0.583,0.550,��,6.7,��
2022/11/26,14:40,0.565,0.811,0.512,1.023,0.705,0.332,0.584,0.551,��,7.4,��
2022/11/26,14:50,0.565,0.810,0.512,1.023,0.705,0.332,0.582,0.550,��쐼,5.3,��
2022/11/26,15:00,0.566,0.809,0.514,1.024,0.705,0.332,0.584,0.549,��쐼,5.4,��
2022/11/26,15:10,0.563,0.811,0.512,1.025,0.704,0.331,0.582,0.550,��,5.4,��
2022/11/26,15:20,0.564,0.813,0.514,1.025,0.705,0.331,0.582,0.550,��,7.0,��
2022/11/26,15:30,0.565,0.812,0.513,1.025,0.706,0.332,0.582,0.550,��,7.0,��
2022/11/26,15:40,0.565,0.812,0.512,1.025,0.704,0.330,0.582,0.550,��,8.9,��
2022/11/26,15:50,0.564,0.813,0.512,1.025,0.705,0.333,0.582,0.549,��,9.2,��
2022/11/26,16:00,0.564,0.811,0.513,1.026,0.705,0.334,0.582,0.553,��쐼,6.8,��
2022/11/26,16:10,0.564,0.812,0.513,1.024,0.705,0.332,0.582,0.551,��쐼,7.1,��
2022/11/26,16:20,0.564,0.810,0.513,1.025,0.705,0.332,0.584,0.553,�쐼,7.5,��
2022/11/26,16:30,0.563,0.813,0.512,1.024,0.705,0.330,0.582,0.553,��쐼,7.8,��
2022/11/26,16:40,0.563,0.814,0.514,1.025,0.705,0.331,0.584,0.554,��쐼,8.1,��
2022/11/26,16:50,0.563,0.812,0.515,1.024,0.706,0.332,0.584,0.553,��쐼,8.7,��
2022/11/26,17:00,0.564,0.812,0.515,1.025,0.706,0.332,0.583,0.552,��쐼,9.1,��
2022/11/26,17:10,0.564,0.813,0.517,1.025,0.706,0.333,0.584,0.552,��쐼,8.6,��
2022/11/26,17:20,0.565,0.814,0.515,1.025,0.706,0.333,0.584,0.554,�쐼,9.1,��
2022/11/26,17:30,0.567,0.814,0.517,1.026,0.707,0.332,0.584,0.551,��쐼,8.8,��
2022/11/26,17:40,0.564,0.815,0.516,1.024,0.706,0.333,0.583,0.553,�쐼,9.0,��
2022/11/26,17:50,0.563,0.816,0.515,1.026,0.706,0.332,0.584,0.553,�쐼,6.6,��
2022/11/26,18:00,0.565,0.815,0.516,1.024,0.705,0.331,0.584,0.553,��쐼,4.4,��
2022/11/26,18:10,0.565,0.815,0.516,1.025,0.707,0.334,0.585,0.552,��,5.1,��
2022/11/26,18:20,0.566,0.816,0.515,1.024,0.706,0.331,0.585,0.554,��쐼,5.3,��
2022/11/26,18:30,0.566,0.814,0.516,1.024,0.708,0.333,0.584,0.554,�쐼,4.4,��
2022/11/26,18:40,0.567,0.815,0.515,1.024,0.708,0.334,0.584,0.553,�쐼,4.6,��
2022/11/26,18:50,0.566,0.814,0.517,1.027,0.708,0.333,0.585,0.552,�쐼,4.3,��
2022/11/26,19:00,0.567,0.815,0.516,1.027,0.710,0.333,0.583,0.553,��쐼,3.2,��
2022/11/26,19:10,0.567,0.816,0.516,1.024,0.710,0.333,0.585,0.553,�쐼,2.3,��
2022/11/26,19:20,0.566,0.814,0.514,1.025,0.709,0.334,0.585,0.552,��쐼,2.9,��
2022/11/26,19:30,0.567,0.815,0.515,1.023,0.708,0.333,0.586,0.553,���쐼,2.3,��
2022/11/26,19:40,0.566,0.812,0.518,1.025,0.710,0.332,0.585,0.552,�쐼,1.7,��
2022/11/26,19:50,0.565,0.815,0.516,1.024,0.709,0.333,0.584,0.553,���쐼,5.5,��
2022/11/26,20:00,0.566,0.814,0.515,1.025,0.708,0.334,0.584,0.553,��,4.8,��
2022/11/26,20:10,0.568,0.814,0.514,1.025,0.707,0.332,0.586,0.555,��,3.2,��
2022/11/26,20:20,0.567,0.814,0.517,1.026,0.708,0.332,0.586,0.552,��,6.9,��
2022/11/26,20:30,0.567,0.816,0.514,1.025,0.709,0.334,0.583,0.553,��,9.3,��
2022/11/26,20:40,0.568,0.813,0.518,1.026,0.708,0.334,0.586,0.553,��,11.6,��
2022/11/26,20:50,0.567,0.814,0.517,1.028,0.709,0.334,0.587,0.551,��,11.6,��
2022/11/26,21:00,0.567,0.813,0.517,1.027,0.709,0.333,0.585,0.553,��,10.4,��
2022/11/26,21:10,0.568,0.815,0.516,1.026,0.710,0.334,0.585,0.553,��,11.0,��
2022/11/26,21:20,0.568,0.815,0.516,1.027,0.710,0.334,0.585,0.553,��,11.1,��
2022/11/26,21:30,0.566,0.816,0.515,1.027,0.709,0.333,0.583,0.555,���k��,9.5,��
2022/11/26,21:40,0.568,0.816,0.517,1.027,0.709,0.333,0.583,0.553,���k��,9.2,��
2022/11/26,21:50,0.568,0.815,0.516,1.025,0.710,0.334,0.584,0.552,���k��,9.7,��
2022/11/26,22:00,0.566,0.815,0.517,1.027,0.711,0.333,0.583,0.553,���k��,7.9,��
2022/11/26,22:10,0.566,0.816,0.517,1.028,0.709,0.333,0.584,0.553,���k��,8.7,��
2022/11/26,22:20,0.567,0.816,0.516,1.028,0.710,0.332,0.584,0.554,���k��,8.7,��
2022/11/26,22:30,0.566,0.815,0.517,1.028,0.710,0.333,0.585,0.555,���k��,10.9,��
2022/11/26,22:40,0.568,0.815,0.518,1.027,0.711,0.333,0.584,0.555,��,11.4,��
2022/11/26,22:50,0.567,0.815,0.517,1.028,0.710,0.334,0.584,0.553,��,8.9,��
2022/11/26,23:00,0.568,0.814,0.516,1.027,0.708,0.331,0.583,0.556,��,8.3,��
2022/11/26,23:10,0.566,0.814,0.518,1.029,0.711,0.333,0.583,0.555,���쐼,6.1,��
2022/11/26,23:20,0.567,0.815,0.517,1.030,0.710,0.332,0.586,0.555,��,6.0,��
2022/11/26,23:30,0.567,0.816,0.518,1.028,0.710,0.333,0.583,0.554,��,6.3,��
2022/11/26,23:40,0.567,0.816,0.517,1.028,0.709,0.332,0.584,0.555,��,4.6,��
2022/11/26,23:50,0.568,0.815,0.518,1.028,0.710,0.332,0.586,0.556,�k��,7.4,��
